GW2753 Weather Reports


time (UTC)temp
F
wind
direction
speed
knots
gust
knots
rain 1hr
in
rain 24hr
in
rain mn
in
humidity
%
barometer
mb
20260502163046 54 180 4.3 11.3 0.01 0.02 0.01 44 1016.3
20260502161544 54 180 6.1 13.0 0.01 0.02 0.01 43 1016.4
20260502151548 53 180 4.3 9.6 0.00 0.01 0.00 48 1016.8
20260502123034 40 0 0.0 0.0 0.00 0.01 0.00 91 1017.0
20260502121540 39 0 0.0 0.0 0.00 0.01 0.00 91 1016.8
20260502114540 39 0 0.0 0.0 0.00 0.01 0.00 91 1017.0
20260502113044 38 0 0.0 0.0 0.00 0.01 0.00 91 1016.7
20260502111545 38 0 0.0 0.0 0.00 0.01 0.00 91 1016.7
20260502110041 38 0 0.0 1.7 0.00 0.01 0.00 91 1016.6
20260502104547 38 0 0.0 1.7 0.00 0.01 0.00 90 1016.6
20260502103036 38 0 0.0 0.0 0.00 0.01 0.00 90 1016.5
20260502101609 38 0 0.0 0.0 0.00 0.01 0.00 90 1016.8
20260502070052 42 0 0.0 0.0 0.00 0.01 0.00 82 1016.5
20260502064540 42 0 0.0 0.0 0.00 0.01 0.00 81 1016.5
20260502063039 43 0 0.0 0.0 0.00 0.01 0.00 79 1016.6
20260502061537 44 0 0.0 0.9 0.00 0.01 0.00 78 1016.8
20260502060035 44 0 0.0 1.7 0.00 0.01 0.00 76 1016.7
20260502054541 45 0 0.0 0.0 0.00 0.01 0.00 73 1016.8
20260502053039 46 0 0.0 0.9 0.00 0.01 0.00 71 1016.8
20260502051544 47 0 0.0 0.9 0.00 0.01 0.00 69 1016.7
20260502050044 48 0 0.0 0.9 0.00 0.01 0.00 67 1016.8
20260502044540 49 180 0.0 0.9 0.00 0.01 0.00 64 1016.5
20260502043040 50 0 0.0 4.3 0.00 0.01 0.00 61 1016.9
20260502041537 50 180 1.7 5.2 0.00 0.01 0.00 60 1016.7
20260502040045 51 180 0.9 5.2 0.00 0.01 0.00 61 1016.7
20260502034542 51 180 2.6 5.2 0.00 0.01 0.01 61 1016.7
20260502033042 51 180 0.9 4.3 0.00 0.01 0.01 61 1016.6
20260502031541 52 180 2.6 9.6 0.00 0.01 0.01 61 1016.8
20260502030038 52 180 5.2 9.6 0.00 0.01 0.01 62 1016.8
20260502024543 52 180 1.7 7.8 0.00 0.02 0.01 66 1016.4
20260502023055 53 180 0.9 7.0 0.00 0.02 0.01 66 1016.4
20260502021540 53 180 1.7 7.0 0.00 0.02 0.01 66 1016.4
20260502020058 53 180 2.6 9.6 0.00 0.02 0.01 66 1015.9
20260502014534 53 180 5.2 11.3 0.00 0.02 0.01 69 1015.6
20260502013052 53 0 0.0 0.0 0.00 0.02 0.01 71 1015.1
20260502011827 53 0 0.0 0.0 0.00 0.02 0.01 68 1014.8
20260502004601 54 180 0.0 2.6 0.00 0.02 0.01 64 1014.6
20260502003042 55 180 1.7 4.3 0.00 0.02 0.01 62 1014.4
20260502001601 55 180 2.6 8.7 0.00 0.02 0.01 60 1014.3
20260502000039 56 180 1.7 7.8 0.00 0.02 0.01 58 1013.8
20260501234550 56 180 4.3 8.7 0.00 0.02 0.01 55 1013.2
20260501233053 57 0 0.9 5.2 0.00 0.02 0.01 59 1013.0
20260501231541 57 180 1.7 7.0 0.00 0.02 0.01 59 1012.8
20260501230040 58 180 4.3 8.7 0.00 0.02 0.01 59 1012.8
20260501224540 58 0 3.5 8.7 0.00 0.02 0.01 62 1012.8
20260501223033 58 180 2.6 7.8 0.00 0.02 0.01 61 1012.7
20260501221540 59 180 3.5 10.4 0.00 0.02 0.01 60 1012.5
20260501220111 60 180 4.3 9.6 0.00 0.02 0.01 58 1012.3
20260501214541 60 180 3.5 13.0 0.00 0.02 0.01 56 1012.4
20260501213040 61 180 5.2 12.2 0.00 0.02 0.01 52 1011.7
20260501211554 64 180 5.2 16.5 0.00 0.02 0.01 45 1011.4
20260501210056 65 180 2.6 7.8 0.00 0.02 0.01 41 1010.7
20260501204544 66 180 2.6 7.0 0.00 0.02 0.01 39 1010.6
20260501203042 67 180 0.0 3.5 0.00 0.02 0.01 36 1010.7
20260501201542 68 180 1.7 7.8 0.00 0.02 0.01 33 1010.4
20260501200046 70 180 2.6 8.7 0.00 0.02 0.01 29 1010.3
20260501194540 70 180 1.7 10.4 0.00 0.02 0.01 32 1010.4
20260501193047 69 180 0.9 9.6 0.01 0.02 0.01 32 1010.4
20260501191539 68 180 4.3 15.6 0.01 0.02 0.01 29 1010.7
20260501190040 68 180 4.3 9.6 0.01 0.02 0.01 30 1010.8
20260501184536 67 180 3.5 13.9 0.01 0.02 0.01 31 1011.1
20260501183056 66 180 2.6 12.2 0.00 0.01 0.00 25 1011.3
20260501181557 67 180 5.2 16.5 0.00 0.01 0.00 27 1011.3
20260501180040 66 180 2.6 13.0 0.00 0.01 0.00 30 1011.3
20260501174536 67 180 3.5 12.2 0.00 0.01 0.00 25 1011.5
20260501173044 67 180 2.6 7.8 0.00 0.01 0.00 28 1011.5
20260501171542 66 180 3.5 9.6 0.00 0.01 0.00 29 1011.6